Location: Gilevgi
(36.8751°N, 30.0581°E)
Time: 02:39:24
(UTC+00:00)

Cosmos 2333 Rocket - Pass Details

Date: 11 December 2025
Orbit: 837 x 865 km, 70.8° (Epoch: 14 January)

Event Time Altitude Azimuth Distance (km) Brightness Sun altitude
Rises 17:04:25 0° 185° (S) 3,404 5.5 -27.4°
Reaches altitude 10° 17:06:55 10° 180° (S) 2,476 4.7 -27.9°
Enters shadow 17:09:15 24° 169° (SSE) 1,681 3.7 -28.3°
